[[{"header":{"parameterUnit":"m.s-1","parameterCategory":1,"la1":30.2991,"la2":30.254,"lo1":-89.0895,"lo2":-89.0444,"dy":0.0017,"dx":0.0017,"nx":28,"ny":28,"refTime":"2024-10-20T03:00:00:Z","depth":0,"parameterNumber":2,"parameterNumberName":"U-component_of_WINDS"},"data":[0,0,0,0,0,0,0,0,0,0,0,0,0,0,0,0,0,0,0,0,0,0,0,0,0,0,0,0,0,0,0,0,0,0,0,0,0,0,0,0,0,0,0,0,0,0,0,0,0,0,0,0,0,0,0,0,0,0,-2.5594,-2.5594,0,-2.5527,-2.5527,-2.5526,-2.5411,-2.5409,-2.5407,-2.5405,-2.5339,-2.5339,-2.534,0,0,0,0,0,0,0,0,0,0,0,0,0,-2.5627,-2.5627,-2.5595,-2.5594,-2.5593,-2.5528,-2.5527,-2.5526,-2.5412,-2.5409,-2.5406,-2.5404,-2.5339,-2.5339,-2.534,0,0,0,0,0,0,0,0,0,0,0,0,0,-2.5592,-2.5627,-2.5595,-2.5528,-2.5521,-2.5528,-2.5527,-2.5525,-2.5412,-2.5409,-2.5406,-2.5403,-2.5339,-2.5339,-2.534,-2.5407,0,0,-2.5341,-2.5341,0,0,0,0,0,0,0,0,-2.5594,-2.5591,-2.5539,-2.5533,-2.5525,-2.5474,-2.5514,-2.5486,-2.5413,-2.5454,-2.5405,-2.5401,-2.5387,-2.5383,-2.5378,-2.5404,-2.5401,-2.5341,-2.5341,-2.5341,-2.5341,0,0,0,0,0,0,0,-2.5597,-2.5593,-2.5568,-2.5538,-2.553,-2.5502,-2.5494,-2.5508,-2.5439,-2.545,-2.5441,-2.5435,-2.5383,-2.5378,-2.5375,-2.54,-2.5341,-2.5341,-2.5341,-2.5342,-2.548,-2.5483,0,0,0,0,0,0,-2.5608,-2.5596,-2.557,-2.5566,-2.5552,-2.5505,-2.5495,-2.5494,-2.5439,-2.5427,-2.5438,-2.543,-2.5379,-2.5375,-2.5373,-2.5449,-2.5341,-2.5342,-2.5342,-2.5477,-2.5481,-2.5484,0,0,0,0,0,0,-2.561,-2.5607,-2.5573,-2.5579,-2.5572,-2.5507,-2.5507,-2.5494,-2.5489,-2.543,-2.5417,-2.5445,-2.5376,-2.5372,-2.5399,-2.5445,-2.5342,-2.5342,-2.5472,-2.5478,-2.5483,-2.5603,0,0,0,0,0,0,-2.5611,-2.5608,-2.5632,-2.558,-2.5572,-2.56,-2.551,-2.5495,-2.549,-2.5479,-2.5433,-2.5423,-2.5373,-2.54,-2.54,-2.5444,-2.5343,-2.5468,-2.5475,-2.5481,-2.5594,-2.5611,-2.5626,0,0,0,0,0,-2.5613,-2.5669,-2.5634,-2.5632,-2.5601,-2.5603,-2.5599,-2.554,-2.5494,-2.5518,-2.548,-2.5424,-2.544,-2.5403,-2.5403,-2.5448,-2.5465,-2.5473,-2.548,-2.5587,-2.5608,-2.5625,0,0,0,0,0,0,-2.5729,-2.5661,-2.5621,-2.5662,-2.5639,-2.5584,-2.5612,-2.5563,-2.5553,-2.5544,-2.5472,-2.5462,-2.55,-2.5476,-2.5436,-2.5511,-2.5444,-2.5452,-2.5525,-2.5544,-2.556,-2.5566,-2.5343,0,0,0,0,0,-2.5759,-2.5765,-2.5706,-2.5748,-2.5738,-2.5678,-2.5676,-2.5633,-2.5607,-2.5597,-2.556,-2.5538,-2.5538,-2.5539,-2.5536,-2.559,-2.558,-2.5621,-2.5636,-2.565,-2.5658,-2.5687,-2.5705,-2.551,-2.551,-2.551,0,0,-2.5822,-2.5785,-2.5794,-2.577,-2.5747,-2.5757,-2.567,-2.5684,-2.5691,-2.5599,-2.5623,-2.5596,-2.5566,-2.5608,-2.5624,-2.5589,-2.571,-2.5659,-2.567,-2.5671,-2.5697,-2.5716,-2.5732,-2.5515,-2.5514,-2.5513,0,0,-2.5942,-2.5914,-2.5947,-2.5926,-2.5892,-2.5851,-2.586,-2.5811,-2.579,-2.5812,-2.5744,-2.5752,-2.5753,-2.5735,-2.5727,-2.5842,-2.5791,-2.5842,-2.5925,-2.5955,-2.597,-2.5983,-2.6027,-2.6043,-2.5851,-2.5851,-2.5851,0,-2.6024,-2.6035,-2.597,-2.5988,-2.5981,-2.5897,-2.5931,-2.5914,-2.5882,-2.5879,-2.584,-2.5841,-2.5814,-2.5852,-2.588,-2.5875,-2.5884,-2.5848,-2.5973,-2.5986,-2.5997,-2.6038,-2.6054,-2.5858,-2.5857,-2.5856,-2.5855,0,-2.614,-2.6149,-2.6179,-2.615,-2.6145,-2.6172,-2.6112,-2.6115,-2.6073,-2.6037,-2.6063,-2.6029,-2.6018,-2.6023,-2.5982,-2.6056,-2.6035,-2.5986,-2.5917,-2.6024,-2.6061,-2.6076,-2.5867,-2.5865,-2.5863,-2.5861,0,0,-2.6331,-2.6266,-2.6278,-2.6265,-2.6222,-2.6228,-2.6251,-2.624,-2.6246,-2.6227,-2.6246,-2.6249,-2.6203,-2.6194,-2.6149,-2.6175,-2.6271,-2.6122,-2.612,-2.6153,-2.6354,-2.6393,-2.6412,-2.6236,-2.6239,-2.6241,-2.6357,0,-2.6444,-2.6479,-2.6421,-2.647,-2.6479,-2.64,-2.6421,-2.6398,-2.6365,-2.6369,-2.6333,-2.6338,-2.6276,-2.627,-2.6291,-2.6255,-2.6311,-2.6246,-2.6256,-2.6257,-2.6268,-2.6431,-2.6472,-2.6583,-2.6371,-2.6373,-2.6375,0,-2.6579,-2.6567,-2.6617,-2.6573,-2.6574,-2.6594,-2.658,-2.6583,-2.6557,-2.6531,-2.6521,-2.6469,-2.6491,-2.6423,-2.6453,-2.641,-2.6411,-2.6394,-2.6397,-2.6397,-2.6324,-2.6438,-2.6616,-2.6634,-2.6397,-2.6395,-2.6393,0,-2.6717,-2.6712,-2.6742,-2.6733,-2.6681,-2.6697,-2.6677,-2.6646,-2.6644,-2.6632,-2.6631,-2.6622,-2.6618,-2.6613,-2.6561,-2.6516,-2.6598,-2.6526,-2.658,-2.6582,-2.6602,-2.6602,-2.6786,-2.6599,-2.6599,-2.6599,-2.6598,0,-2.685,-2.6884,-2.6803,-2.6822,-2.6859,-2.6793,-2.6832,-2.6803,-2.6778,-2.6791,-2.6722,-2.6736,-2.6665,-2.6672,-2.6631,-2.6663,-2.6661,-2.6643,-2.6632,-2.6651,-2.6653,-2.6652,-2.6643,-2.6603,-2.6602,-2.6601,-2.6601,0,-2.701,-2.6957,-2.6985,-2.6934,-2.6922,-2.6952,-2.6909,-2.6926,-2.6889,-2.6906,-2.6907,-2.685,-2.6854,-2.6801,-2.6796,-2.6768,-2.6821,-2.6795,-2.683,-2.6823,-2.6881,-2.6877,-2.7072,-2.7095,-2.6892,-2.6894,-2.6896,0,-2.7099,-2.7124,-2.7076,-2.7079,-2.7062,-2.7069,-2.7066,-2.7003,-2.7003,-2.6975,-2.6996,-2.6994,-2.699,-2.7002,-2.6961,-2.6957,-2.6933,-2.7001,-2.6932,-2.695,-2.6937,-2.6937,-2.694,-2.7017,-2.7019,-2.7021,-2.7023,0,-2.7264,-2.7237,-2.7235,-2.7225,-2.7224,-2.7213,-2.7198,-2.7205,-2.7136,-2.7141,-2.7144,-2.7141,-2.7136,-2.7137,-2.7125,-2.7106,-2.7055,-2.7045,-2.7057,-2.7077,-2.7098,-2.709,-2.6872,-2.7041,-2.7039,-2.7038,-2.7037,-2.7036,-2.7393,-2.7412,-2.7382,-2.7383,-2.7365,-2.7352,-2.7366,-2.7331,-2.7333,-2.7323,-2.7285,-2.7297,-2.7271,-2.725,-2.7235,-2.7245,-2.7211,-2.7229,-2.7234,-2.724,-2.7252,-2.7095,-2.7242,-2.7241,-2.7241,-2.724,-2.724,0,-2.7556,-2.7533,-2.7534,-2.7515,-2.7517,-2.7466,-2.7448,-2.7453,-2.7463,-2.7443,-2.7441,-2.7447,-2.7448,-2.7407,-2.7403,-2.7419,-2.7395,-2.742,-2.742,-2.7417,-2.728,-2.7271,-2.7439,-2.7439,-2.7439,-2.7439,-2.7439,-2.7439,-2.7641,-2.7671,-2.7641,-2.7663,-2.7639,-2.7649,-2.7643,-2.7633,-2.7616,-2.7626,-2.7626,-2.7599,-2.7572,-2.7566,-2.7565,-2.7553,-2.7556,-2.759,-2.7571,-2.7445,-2.7426,-2.7407,-2.7398,-2.7591,-2.7591,-2.7706,-2.7707,-2.7708]},{"header":{"parameterUnit":"m.s-1","parameterCategory":1,"la1":30.2991,"la2":30.254,"lo1":-89.0895,"lo2":-89.0444,"dy":0.0017,"dx":0.0017,"nx":28,"ny":28,"refTime":"2024-10-20T03:00:00:Z","depth":0,"parameterNumber":3,"parameterNumberName":"V-component_of_WINDS"},"data":[0,0,0,0,0,0,0,0,0,0,0,0,0,0,0,0,0,0,0,0,0,0,0,0,0,0,0,0,0,0,0,0,0,0,0,0,0,0,0,0,0,0,0,0,0,0,0,0,0,0,0,0,0,0,0,0,0,0,-1.9299,-1.9299,0,-1.9345,-1.9346,-1.9346,-1.9343,-1.9343,-1.9342,-1.9341,-1.9389,-1.9391,-1.9393,0,0,0,0,0,0,0,0,0,0,0,0,0,-1.9207,-1.9209,-1.9298,-1.9299,-1.93,-1.9345,-1.9346,-1.9346,-1.9344,-1.9343,-1.9342,-1.9341,-1.9389,-1.9391,-1.9393,0,0,0,0,0,0,0,0,0,0,0,0,0,-1.925,-1.9209,-1.9298,-1.9304,-1.9305,-1.9345,-1.9346,-1.9346,-1.9344,-1.9343,-1.9342,-1.9341,-1.9388,-1.9391,-1.9393,-1.9431,0,0,-1.9402,-1.9403,0,0,0,0,0,0,0,0,-1.9247,-1.9253,-1.9302,-1.9303,-1.9305,-1.9337,-1.9331,-1.9375,-1.9344,-1.9329,-1.9341,-1.934,-1.9373,-1.9377,-1.9388,-1.9434,-1.9436,-1.9402,-1.9404,-1.9405,-1.9406,0,0,0,0,0,0,0,-1.9244,-1.9251,-1.9317,-1.9303,-1.9304,-1.9304,-1.9309,-1.9339,-1.9356,-1.933,-1.933,-1.9336,-1.9373,-1.9385,-1.9389,-1.9436,-1.9402,-1.9405,-1.9407,-1.9408,-1.9517,-1.9518,0,0,0,0,0,0,-1.924,-1.9248,-1.9315,-1.9318,-1.9273,-1.9306,-1.9312,-1.9328,-1.9356,-1.9359,-1.9336,-1.9335,-1.9381,-1.9386,-1.9391,-1.9438,-1.9405,-1.9408,-1.941,-1.9516,-1.9517,-1.9518,0,0,0,0,0,0,-1.9238,-1.9246,-1.9314,-1.9283,-1.9292,-1.9309,-1.9327,-1.9329,-1.9341,-1.936,-1.9363,-1.9346,-1.938,-1.9386,-1.9421,-1.944,-1.9409,-1.9412,-1.9514,-1.9516,-1.9518,-1.9533,0,0,0,0,0,0,-1.9236,-1.9245,-1.926,-1.9284,-1.9294,-1.9344,-1.9328,-1.9331,-1.9346,-1.9345,-1.937,-1.9373,-1.938,-1.9417,-1.9424,-1.9443,-1.9414,-1.9513,-1.9515,-1.9517,-1.9531,-1.9535,-1.9539,0,0,0,0,0,-1.9232,-1.9262,-1.9261,-1.9269,-1.9312,-1.9345,-1.9351,-1.9358,-1.9348,-1.9363,-1.9375,-1.9372,-1.9436,-1.9421,-1.9429,-1.9449,-1.9512,-1.9514,-1.9517,-1.9529,-1.9534,-1.9539,0,0,0,0,0,0,-1.924,-1.9265,-1.9264,-1.9303,-1.9322,-1.9344,-1.9364,-1.9363,-1.9385,-1.9383,-1.9391,-1.9397,-1.9432,-1.9444,-1.9426,-1.9487,-1.9473,-1.9477,-1.9479,-1.9484,-1.9488,-1.9486,-1.9416,0,0,0,0,0,-1.9246,-1.9271,-1.9291,-1.9323,-1.9333,-1.9347,-1.9361,-1.9365,-1.9385,-1.9393,-1.9408,-1.9428,-1.9452,-1.9468,-1.9492,-1.9532,-1.9538,-1.9549,-1.9553,-1.9556,-1.9561,-1.9584,-1.959,-1.9527,-1.9527,-1.9527,0,0,-1.926,-1.9276,-1.9291,-1.9325,-1.9341,-1.9366,-1.9353,-1.9381,-1.94,-1.9397,-1.9432,-1.9443,-1.9466,-1.9504,-1.9521,-1.9514,-1.9579,-1.956,-1.9562,-1.9565,-1.9587,-1.9593,-1.9599,-1.9529,-1.9529,-1.9528,0,0,-1.9297,-1.9312,-1.9341,-1.9356,-1.938,-1.9388,-1.9395,-1.9418,-1.9426,-1.946,-1.9459,-1.9482,-1.9524,-1.954,-1.9554,-1.9598,-1.9596,-1.9605,-1.9626,-1.9648,-1.9653,-1.9658,-1.9675,-1.9681,-1.9609,-1.9609,-1.9609,0,-1.9311,-1.935,-1.9356,-1.9384,-1.9399,-1.9398,-1.9428,-1.9442,-1.9472,-1.9483,-1.9474,-1.9527,-1.9542,-1.9585,-1.9595,-1.9606,-1.9615,-1.9603,-1.9652,-1.9657,-1.9661,-1.9678,-1.9684,-1.961,-1.961,-1.9609,-1.9609,0,-1.9366,-1.9393,-1.9413,-1.9443,-1.946,-1.9489,-1.95,-1.9516,-1.9518,-1.9528,-1.9564,-1.9581,-1.9609,-1.9619,-1.9621,-1.9662,-1.9657,-1.965,-1.9636,-1.9668,-1.9684,-1.969,-1.9611,-1.9611,-1.9611,-1.961,0,0,-1.9412,-1.9444,-1.9452,-1.9466,-1.9491,-1.9512,-1.954,-1.9567,-1.9582,-1.9602,-1.9627,-1.9663,-1.9657,-1.9672,-1.9676,-1.9695,-1.9731,-1.9686,-1.9687,-1.9696,-1.978,-1.9787,-1.9794,-1.9729,-1.9731,-1.9732,-1.9778,0,-1.9454,-1.9505,-1.9512,-1.9557,-1.9583,-1.9581,-1.9606,-1.9624,-1.9634,-1.9657,-1.9667,-1.9693,-1.9682,-1.9691,-1.971,-1.9723,-1.9749,-1.9719,-1.9754,-1.9755,-1.9751,-1.9802,-1.9809,-1.9853,-1.9784,-1.9785,-1.9786,0,-1.951,-1.9533,-1.9581,-1.9604,-1.9615,-1.9637,-1.9663,-1.9684,-1.9705,-1.9711,-1.9728,-1.973,-1.9759,-1.9742,-1.9784,-1.9764,-1.9778,-1.9786,-1.9788,-1.9794,-1.9775,-1.9811,-1.9867,-1.9874,-1.9796,-1.9795,-1.9794,0,-1.9542,-1.9583,-1.9618,-1.963,-1.9656,-1.9672,-1.9684,-1.9704,-1.972,-1.9742,-1.9753,-1.9778,-1.9793,-1.9812,-1.982,-1.9807,-1.9863,-1.9845,-1.9869,-1.9869,-1.9883,-1.9883,-1.9944,-1.9888,-1.9888,-1.9888,-1.9888,0,-1.9589,-1.962,-1.9633,-1.9655,-1.9689,-1.9695,-1.9728,-1.9739,-1.9757,-1.9781,-1.978,-1.9803,-1.9811,-1.9835,-1.9841,-1.9876,-1.9882,-1.9888,-1.989,-1.989,-1.9889,-1.9901,-1.9899,-1.989,-1.9889,-1.9889,-1.9889,0,-1.9631,-1.9641,-1.9679,-1.9701,-1.9707,-1.9732,-1.9751,-1.9772,-1.978,-1.9811,-1.9818,-1.9832,-1.9861,-1.987,-1.9904,-1.9908,-1.995,-1.9947,-1.9943,-1.9944,-1.9968,-1.9967,-2.0042,-2.0053,-1.9987,-1.9988,-1.9988,0,-1.9662,-1.9686,-1.971,-1.9726,-1.9739,-1.9765,-1.9782,-1.9788,-1.9806,-1.9831,-1.9849,-1.9877,-1.99,-1.9946,-1.9959,-1.9985,-1.9985,-2.0009,-1.9989,-1.9989,-1.9988,-1.9988,-1.9991,-2.0014,-2.0015,-2.0015,-2.0016,0,-1.9717,-1.9721,-1.9745,-1.9772,-1.9792,-1.9812,-1.9832,-1.9845,-1.9855,-1.9875,-1.9904,-1.9922,-1.9956,-1.9985,-2.0011,-2.0023,-2.0022,-2.0022,-2.0029,-2.0031,-2.0028,-2.0032,-1.9956,-2.0021,-2.002,-2.002,-2.0019,-2.0019,-1.9756,-1.9778,-1.9799,-1.9826,-1.9842,-1.986,-1.9882,-1.9893,-1.9918,-1.9947,-1.9949,-1.9981,-2.0001,-2.0037,-2.005,-2.0075,-2.0068,-2.0079,-2.0082,-2.0085,-2.0088,-2.0022,-2.008,-2.0079,-2.0079,-2.0079,-2.0079,0,-1.9814,-1.9827,-1.9852,-1.988,-1.9902,-1.9897,-1.9919,-1.9938,-1.9966,-1.9985,-2.0007,-2.0041,-2.0068,-2.0083,-2.0111,-2.0128,-2.0128,-2.0135,-2.0136,-2.0139,-2.0091,-2.0083,-2.0135,-2.0135,-2.0135,-2.0135,-2.0135,-2.0135,-1.9846,-1.9882,-1.9889,-1.9933,-1.9946,-1.9977,-1.999,-2.0008,-2.0023,-2.0061,-2.0084,-2.0094,-2.0111,-2.014,-2.0165,-2.0169,-2.018,-2.0188,-2.0192,-2.0148,-2.0142,-2.0137,-2.0129,-2.019,-2.019,-2.0238,-2.0238,-2.0239]}]]